Regional Weather Roundup
Issued by NWS

Home | Current Version | Previous Version | Graphics & Text | Print | Product List | Glossary On
Versions: 1 2 3 4 5 6 7 8 9 10 11 12 13 14 15 16 17 18 19 20 21 22 23 24 25 26 27 28 29 30 31 32 33 34 35 36 37 38 39 40 41 42 43 44 45 46 47 48 49 50
000
ASUS44 KMEG 191800
RWRTN
TENNESSEE HOURLY STATE WEATHER ROUNDUP
NATIONAL WEATHER SERVICE MEMPHIS TN
1200 PM CST THU JAN 19 2017

TNZ002-004-019-021-049-052-054-088>092-191900-
WEST TENNESSEE

CITY           SKY/WX    TMP DP  RH WIND       PRES   REMARKS
MEMPHIS INTL   CLOUDY    65  63  93 S12G23    29.81F
NWS MEMPHIS      N/A     63 N/A N/A MISG        N/A
JACKSON        CLOUDY    60  60 100 CALM      29.83F FOG
DYERSBURG      CLOUDY    54  52  94 SE6       29.82F
UNION CITY     CLOUDY   N/A N/A N/A CALM      29.82F
PARIS          CLOUDY    48  48 100 E5        29.86F
$$

TNZ008-025-027-028-033-062-065-066-191900-
NORTH MIDDLE TENNESSEE

CITY           SKY/WX    TMP DP  RH WIND       PRES   REMARKS
NASHVILLE      LGT RAIN  54  51  90 S3        29.91F FOG
CLARKSVILLE    RAIN      53  51  93 SE6       29.88F FOG
SMYRNA         LGT RAIN  55  54  96 CALM      29.92F
CROSSVILLE     CLOUDY    55  52  89 SE3       29.98F
$$

TNZ061-075-076-078-094-096-097-191900-
SOUTH MIDDLE TENNESSEE

CITY           SKY/WX    TMP DP  RH WIND       PRES   REMARKS
TULLAHOMA      CLOUDY    61  55  82 SE8       29.94F
WINCHESTER     PTSUNNY   61  54  77 SE10      29.94F
MCMINNVILLE    MOSUNNY   64  61  88 VRB5      29.93F
COLUMBIA       CLOUDY   N/A N/A N/A CALM      29.88F
SHELBYVILLE    CLOUDY    63  57  82 SE7       29.92F
$$

TNZ017-018-042-046-047-191900-
NORTHEAST TENNESSEE

CITY           SKY/WX    TMP DP  RH WIND       PRES   REMARKS
TRI CITIES     PTSUNNY   60  35  39 CALM      30.01F
$$

TNZ012-013-036-069-073-074-191900-
CENTRAL EAST TENNESSEE

CITY           SKY/WX    TMP DP  RH WIND       PRES   REMARKS
KNOXVILLE      CLOUDY    54  43  66 NW5       30.00F
OAK RIDGE      CLOUDY    53  42  66 E5        30.02F
GATLINBURG     CLOUDY    54  43  66 CALM      30.01S
$$

TNZ083-085-099-191900-
SOUTHEAST TENNESSEE

CITY           SKY/WX    TMP DP  RH WIND       PRES   REMARKS
CHATTANOOGA    CLOUDY    58  44  60 CALM      30.00F
$$

SKY/WX REPORTED AS FAIR MEANS FEW OR NO CLOUDS BELOW
12 THOUSAND FEET.





USA.gov is the U.S. government's official web portal to all federal, state and local government web resources and services.